[Date Prev][Date Next][Thread Prev][Thread Next] - [Date Index][Thread Index][Author Index]

2 Line ISS Keps 2-17



ISS
1 25544U 98067A   02048.20196350  .00067824  00000-0  76924-3 0   865
2 25544  51.6380 296.0295 0005162  84.1330  56.8188 15.61720983185317


----
Via the sarex mailing list at AMSAT.ORG courtesy of AMSAT-NA.
To unsubscribe, send "unsubscribe sarex" to Majordomo@amsat.org



AMSAT Top AMSAT Home